DECAYED

CZ-4B R/B, 39359 (Decayed)

Orbit data source: Space-Track

CZ-4B R/B, 39359 was space debris in LEO originally from a launch on Fri, 25 Oct 2013 UTC launched from the Jiuquan Satellite Launch Center, China (JSC). Debris objects in space refer to the collection of defunct objects orbiting the Earth. Examples of debris include non-operational satellites, rocket bodies, and fragments generated from explosions, collisions, or faulty payload assembly.

Not visible in the next 10 days
Identifier
39359, 2013-057B
Orbit
Decayed
Country
Flag of CNCN / PRC
Related business
Manufacturer
SAST
Mission
Decayed spacecraft
Bus & Motor
CZ-4 STAGE 3, Unknown motor
Mass
~1,000 kg wet, ~1,000 kg dry
Launch date (UTC)
2013-10-25 (13 years ago)
Launch vehicle
Unknown
Launch site
Jiuquan Satellite Launch Center, China (JSC)
Object type
Payload
Rocket body
Debris
Shape & HBR
Cyl, 2.5 m
Radar Cross Section
14.536 m², Large (>1 m²)

Expand to show TLE details & history
Last TLE update: 9 months ago

TLE from 9 months ago
0 CZ-4B R/B
1 39359U 13057B   25252.81278100  .09099436  15055-5  16724-3 0  9992
2 39359  74.9471  59.1281 0007911 259.5365 100.5012 16.47161319660462
Epoch: 2025-09-09T19:30Z
TLE epoch observation values (Epoch: 2025-09-09T19:30:24.278Z)
Latitude
-0.00008°
Longitude
137.42875°
Altitude
150.683 km
Speed
7.815 km/s
True Right ascension
03h 56m 30s
True Declination
0° 00' 00"
Sunlit
Object was in full shadow at epoch
Visualization orbit readout
Latitude
Unknown
Longitude
Unknown
Altitude
Unknown
Speed
Unknown
Apparent Right ascension
Unknown
Apparent Declination
Unknown
Sunlit
N/A
Visualization observer readout
Local Sidereal Time
23:18:57
Azimuth
Unknown
Elevation
Unknown
Doppler factor
Unknown
Orbital elements
Apogee altitude
149.294 km
Perigee altitude
138.975 km
Semi-major axis
6,522.271 km
Eccentricity
0.00079
Inclination
74.9471°
RAAN
59.1281°
Arg. of periapsis
259.5365°
True anomaly
100.59032°
Mean anomaly
100.5012°
Eccentric anomaly
100.54576°
Mean motion
4.12045 °/min
Orbital period
87.37 mins
BSTAR
0.00016724
Loading maneuver chart data...
Computing Atmospheric mass density...
Loading historical data...
Loading historical data...
Loading historical data...
Loading historical data...
Loading historical data...
Loading historical data...
Loading historical data...
Other satellites on launch #57 in the year 2013 (2013-10-25 UTC)

Documentation

Showing up to 5 results
|